Wind_Speed
3 1 4 2 2 1 2 4 1 5 1 2 1 1 6 1 4 3 4 14 15 21 19 21 21 18 17 17 17 18 19 19 20 20 18 17 17 16 17 17 15 12 9 8 8 7 6 5 5
1 6 1 2 1 2 3 1 4 4 1 3 1 2 4 2 1 3 8 8 18 23 21 21 22 19 17 17 17 17 18 18 18 18 17 17 16 16 17 16 14 11 9 8 7 6 5 4 4
5 2 2 2 1 2 4 6 5 6 6 6 2 2 2 2 2 3 4 14 17 17 20 20 21 19 17 16 16 16 16 17 18 17 17 16 16 17 17 17 14 11 9 7 5 3 3 3 2
3 3 2 4 6 4 4 11 4 8 5 3 2 3 2 2 1 4 12 19 18 13 15 19 19 17 16 15 15 15 15 15 16 16 15 15 14 15 16 15 12 10 7 5 4 3 3 2 1
2 0 1 5 6 4 3 5 6 5 3 2 2 3 2 2 5 9 15 18 19 14 12 13 17 15 14 14 13 13 13 14 14 14 14 14 14 14 13 12 11 9 7 5 3 3 2 2 1
1 1 2 6 3 2 4 5 3 2 2 0 2 2 4 2 4 14 16 16 12 14 14 12 16 15 13 12 11 11 12 11 12 12 12 12 12 12 12 11 9 8 6 4 3 2 1 0 0
1 1 2 5 4 5 6 8 3 2 1 2 2 1 3 5 11 15 17 16 15 13 15 12 13 15 14 11 10 10 10 10 10 10 10 9 10 10 10 9 8 7 6 5 3 2 1 1 1
3 1 4 3 4 4 4 6 4 2 2 2 2 4 4 4 13 16 16 14 14 14 14 14 12 12 10 9 11 10 10 9 9 9 9 9 9 9 9 9 8 8 7 5 4 3 2 1 1
2 2 5 4 3 3 3 6 5 3 1 3 1 1 6 11 13 15 12 11 11 12 13 13 14 13 12 11 11 11 10 10 9 8 8 7 6 6 7 9 9 8 8 7 5 4 4 4 2
3 4 6 2 3 2 5 4 3 2 3 1 1 5 6 12 11 14 12 11 14 13 15 13 14 13 12 10 9 9 9 8 10 9 9 7 7 7 7 8 9 8 8 7 6 6 5 4 4
4 6 4 4 5 2 4 3 4 3 3 6 5 7 4 7 12 11 12 15 16 14 17 16 15 14 12 9 10 9 9 9 10 11 10 8 6 6 7 7 7 7 7 6 6 5 4 4 2
4 4 4 3 6 4 2 4 9 4 0 6 7 5 9 6 7 8 9 5 9 16 19 17 17 15 13 12 10 9 10 10 12 11 10 8 7 7 7 7 7 6 6 7 6 6 4 3 4
4 3 5 6 5 6 5 11 7 10 11 13 8 5 2 8 9 13 12 9 14 16 20 23 19 17 15 14 10 10 12 11 9 9 10 9 7 7 8 8 8 9 9 10 9 8 7 5 4
1 2 4 4 4 2 8 10 8 14 7 11 15 6 9 8 11 8 6 12 11 15 23 23 22 19 16 14 12 10 12 12 12 10 10 10 10 9 10 10 12 12 12 12 13 8 6 6 4
0 3 2 2 2 2 7 7 16 16 13 15 15 8 14 15 20 17 11 8 9 11 16 24 24 18 17 13 12 13 11 12 13 12 10 11 11 10 8 8 7 9 8 9 7 7 6 5 3
1 1 3 3 3 3 4 6 9 9 10 23 15 12 10 17 18 20 17 15 12 2 10 14 15 14 13 12 12 12 11 10 11 11 11 10 11 12 11 10 8 6 6 6 8 7 6 5 4
3 2 1 3 2 1 3 6 20 18 10 20 16 12 14 15 20 23 22 19 17 13 10 7 4 5 9 11 9 11 10 9 9 11 12 13 15 14 11 12 8 6 6 7 8 6 3 3 6
3 2 2 3 2 5 9 12 16 19 5 4 17 16 16 20 18 21 23 25 27 26 21 17 11 6 2 1 1 2 1 4 6 7 9 12 13 11 8 9 9 10 11 9 8 7 3 3 8
3 3 4 5 3 5 11 15 18 19 16 17 18 19 18 19 23 26 26 28 30 33 36 31 27 22 16 10 6 3 1 3 3 4 5 5 7 8 9 11 13 12 10 10 9 7 4 3 7
5 4 6 4 4 9 18 19 20 19 16 17 19 18 17 17 20 25 28 31 32 33 35 34 30 27 23 19 15 7 7 4 4 4 4 4 6 8 9 12 13 13 13 12 11 10 8 6 4
4 6 4 5 7 8 9 16 16 15 18 19 20 18 18 18 18 19 27 30 29 31 30 29 30 30 28 21 16 11 8 7 6 5 4 5 6 9 11 13 13 14 11 11 12 11 10 7 7
2 4 2 1 5 4 3 5 11 10 14 18 16 16 16 17 18 21 24 28 28 26 26 29 31 30 28 28 22 18 13 12 10 10 9 9 10 11 13 15 16 16 14 14 14 13 13 12 12
2 0 2 2 3 3 5 4 4 2 11 12 12 14 15 15 16 17 22 23 24 27 26 24 25 27 26 24 23 20 20 16 15 13 14 12 11 10 11 14 16 18 17 16 16 13 15 12 11
6 1 4 3 1 6 5 1 4 1 2 7 8 10 11 12 13 18 20 21 23 23 24 23 24 23 23 22 21 20 18 19 19 19 17 15 15 13 12 15 17 18 18 17 15 15 14 12 12
2 0 3 4 4 2 2 1 5 5 6 6 6 8 9 9 12 14 19 21 20 21 22 22 23 22 22 21 21 20 19 18 17 17 16 19 17 16 15 15 17 19 18 18 16 15 14 13 13
4 1 3 5 3 3 1 4 5 8 8 7 6 2 4 7 9 12 17 18 20 19 20 20 20 20 20 21 22 21 20 18 18 17 19 19 19 18 18 18 18 19 20 18 16 16 14 12 12
3 1 2 5 1 3 4 4 5 9 8 5 4 3 4 7 10 13 17 17 18 18 19 20 21 21 21 22 21 21 20 19 21 24 23 22 22 21 21 19 18 17 17 17 17 16 15 13 12
2 5 2 1 3 4 3 4 4 15 10 4 4 6 7 8 10 13 15 16 16 16 16 17 18 19 20 21 21 20 22 22 22 22 21 22 21 21 21 20 19 17 14 13 16 16 15 14 15
0 1 4 2 2 3 2 2 7 16 12 6 4 6 7 9 12 13 16 16 16 15 16 18 20 20 21 20 21 21 21 21 21 20 21 21 20 19 20 20 20 19 16 13 12 12 13 14 11
4 3 2 2 3 1 2 1 3 10 8 3 4 5 6 7 10 13 16 17 17 19 21 23 22 24 24 24 24 24 23 23 23 22 22 19 18 19 18 19 18 17 15 12 12 11 9 8 8
Wind_Direction
332 190 138 225 234 270 29 55 112 50 332 299 254 164 97 36 4 8 19 164 158 157 160 161 161 158 152 145 146 148 151 153 155 156 156 155 155 155 157 159 156 151 140 125 118 115 116 120 127
235 142 166 287 0 11 348 348 20 80 305 154 203 148 129 100 294 82 134 157 161 159 161 163 164 161 156 150 148 148 150 153 157 159 159 158 159 157 158 160 158 155 147 137 127 119 114 115 121
151 138 299 5 72 332 318 306 351 138 110 184 280 348 73 72 33 149 151 150 153 159 160 163 165 163 158 153 151 151 151 152 154 155 156 157 159 160 162 164 165 165 162 158 152 141 129 120 109
168 175 127 85 68 35 312 311 325 180 133 141 236 148 219 342 117 148 149 148 152 158 157 163 167 165 162 158 155 154 154 157 158 158 159 159 161 163 164 167 170 171 172 170 165 152 143 142 131
54 259 78 97 79 31 23 8 109 127 112 111 341 93 87 77 95 126 140 145 151 150 151 154 165 168 169 168 162 160 159 161 164 163 163 163 165 166 167 169 170 170 168 168 170 168 167 160 141
165 308 164 128 101 329 12 8 105 94 140 83 316 210 104 53 121 126 139 142 146 145 144 158 164 175 180 177 172 170 167 167 171 171 169 172 172 172 172 171 172 173 171 170 171 175 193 217 357
145 188 164 158 115 83 6 327 13 138 134 52 359 305 78 83 124 132 139 146 150 149 149 159 161 180 186 182 185 186 182 176 179 178 182 186 189 189 190 191 192 195 191 190 199 222 245 198 154
113 133 155 175 172 92 15 360 9 213 128 87 295 30 72 134 136 135 143 150 157 167 162 164 165 173 173 181 195 198 196 191 192 192 193 196 205 210 213 215 219 218 215 217 226 240 252 248 285
162 173 187 177 190 355 27 37 54 345 119 111 196 139 96 142 145 137 144 147 165 176 176 174 175 179 180 183 193 200 202 205 201 204 210 209 209 226 236 232 232 229 225 230 240 250 256 267 277
179 202 197 176 145 32 353 338 42 335 8 354 239 238 112 154 175 165 166 186 183 188 187 187 185 188 186 187 185 195 197 204 208 206 209 213 218 226 235 239 236 233 231 238 243 241 253 258 239
155 209 199 178 176 242 19 85 352 65 16 342 322 289 282 192 199 205 187 200 190 196 193 192 190 193 195 187 192 199 201 210 223 222 216 218 224 232 239 241 237 231 239 241 246 251 260 247 206
195 193 192 163 204 184 151 118 300 302 23 332 16 8 322 238 248 237 232 233 201 196 200 198 198 196 201 206 205 213 223 226 237 234 227 220 226 241 240 242 240 239 235 243 250 242 233 199 182
218 187 213 256 235 255 169 189 186 225 298 307 295 333 319 254 237 239 241 228 210 212 204 202 199 199 206 209 218 224 234 239 246 248 251 251 250 253 252 248 251 254 251 252 251 254 245 202 183
299 252 246 259 277 226 199 211 190 233 266 277 285 343 344 18 339 300 283 271 220 208 215 209 209 201 211 219 226 240 253 258 266 268 267 276 274 267 261 266 276 268 264 260 243 230 218 204 198
79 267 245 209 270 242 166 176 208 206 196 218 245 238 45 23 16 13 5 354 262 227 209 209 206 211 215 231 236 248 255 258 269 284 281 272 273 273 274 283 273 266 253 243 211 197 194 235 248
101 119 229 125 279 37 205 250 351 314 211 213 206 226 82 64 33 19 16 29 42 246 200 195 203 207 219 233 243 250 264 260 264 274 272 279 276 269 266 261 269 261 236 195 175 176 194 258 293
42 137 122 137 66 33 221 2 4 353 255 195 197 71 65 60 48 32 33 41 52 63 75 98 146 183 228 240 243 249 263 265 259 269 273 271 267 261 253 248 232 194 174 161 162 169 213 307 324
175 166 173 272 175 356 82 41 16 23 19 48 85 80 77 66 50 48 49 50 55 57 65 68 80 73 85 194 226 325 302 241 256 271 264 259 259 253 239 221 195 171 161 154 158 153 129 20 351
179 200 250 265 341 83 75 54 29 50 69 79 76 74 67 68 64 55 47 51 56 50 54 51 57 53 50 42 29 28 327 301 292 283 263 258 251 240 220 199 189 179 169 160 157 146 127 52 12
191 208 239 271 104 103 77 52 42 51 69 73 79 72 71 65 54 45 48 46 43 46 45 49 47 49 44 37 30 14 356 331 303 301 272 240 220 213 205 203 192 188 175 170 171 178 177 187 167
212 235 224 258 127 100 132 56 49 54 61 69 66 66 63 60 56 48 47 47 46 43 43 41 40 42 41 38 29 11 4 7 356 343 310 261 225 209 212 215 214 204 200 200 209 207 203 210 228
176 204 214 210 200 187 319 140 56 63 54 55 59 65 62 59 58 49 42 38 34 32 34 36 37 35 32 32 30 28 20 6 347 328 307 277 250 237 234 226 225 221 230 237 225 233 246 253 261
84 53 73 81 101 200 40 115 86 66 55 48 48 65 65 60 55 45 35 31 28 26 24 21 21 22 20 20 20 20 15 2 348 342 328 316 297 270 251 243 243 249 244 237 236 239 250 247 258
142 83 59 66 118 237 15 234 122 47 82 74 64 57 53 50 41 37 30 25 22 18 15 11 8 7 6 5 4 4 360 352 347 343 339 326 315 302 284 271 262 255 246 241 250 257 244 236 243
145 126 279 244 222 301 330 107 75 108 86 111 77 53 51 42 33 24 19 15 11 10 7 4 1 357 355 353 351 348 343 336 328 325 322 323 318 315 307 298 279 267 264 263 259 248 243 241 241
40 265 262 279 257 156 105 157 131 128 122 111 92 88 42 28 28 23 14 8 3 3 0 354 350 346 348 345 339 337 333 324 318 313 314 308 306 306 309 307 294 282 273 266 261 258 256 258 257
140 204 54 113 105 220 117 116 161 162 152 136 100 76 41 23 19 10 5 4 358 353 354 350 346 344 343 340 334 329 327 321 315 313 311 306 304 300 302 306 308 300 280 264 260 261 256 262 270
359 122 210 169 212 242 184 211 205 185 176 139 63 24 11 3 3 1 358 356 351 350 347 346 345 340 337 332 326 321 316 315 312 313 311 308 303 303 300 299 301 306 304 290 273 264 262 273 274
258 157 65 87 330 271 251 196 339 181 168 134 58 16 358 353 353 352 350 349 348 349 350 346 340 336 331 329 327 324 322 319 317 314 313 306 304 305 307 304 302 299 301 298 281 275 277 275 274
51 57 37 248 200 74 311 146 58 138 140 118 32 6 357 350 349 345 345 347 351 351 346 341 339 338 336 332 329 327 328 329 326 322 319 316 312 313 307 306 299 290 285 297 290 284 274 263 265
Height
784 784 785 785 787 780 791 792 790 791 788 779 777 778 782 782 786 798 781 783 784 789 793 795 798 799 801 802 805 806 806 808 809 810 812 814 815 817 818 821 823 824 825 826 826 827 827 827 827
783 785 785 780 790 798 794 784 790 790 784 778 777 778 777 786 776 778 781 784 786 787 792 795 797 800 802 802 804 806 807 809 811 812 814 814 816 817 819 822 824 825 826 826 827 828 828 828 828
783 783 782 784 796 801 799 778 779 784 779 780 782 776 776 780 776 778 781 783 789 792 792 796 799 801 803 804 805 807 809 810 811 813 815 816 817 818 820 822 824 825 826 827 828 828 828 828 828
783 784 784 791 801 791 790 775 775 779 778 779 780 782 779 776 775 777 780 782 789 795 796 797 801 804 806 807 808 809 810 812 812 814 816 817 819 820 821 822 824 825 827 827 828 829 829 829 828
783 781 791 799 800 789 780 775 771 778 777 781 781 781 779 778 778 779 783 786 789 795 798 800 802 806 808 809 809 811 811 813 815 816 817 819 820 821 823 824 825 826 827 828 828 829 829 828 828
782 785 798 804 800 787 777 772 770 773 775 778 780 780 779 781 781 781 784 787 792 794 797 802 801 806 809 811 812 813 814 815 817 818 819 821 822 824 824 824 826 826 827 827 828 828 828 828 827
784 790 798 799 798 789 782 770 772 772 775 776 776 779 779 781 782 782 784 788 791 795 795 800 801 805 809 811 813 815 816 817 818 819 821 823 825 825 826 826 826 827 827 827 827 828 828 827 826
782 787 800 799 796 794 779 772 773 769 772 774 776 780 782 781 781 783 786 789 792 794 794 799 803 808 810 811 813 816 817 818 819 820 821 822 824 825 826 826 826 827 827 827 827 827 827 826 825
782 794 800 797 797 789 778 776 773 774 772 773 774 775 779 782 782 783 787 789 793 793 795 799 801 804 807 809 811 814 816 818 819 820 821 823 824 826 826 826 826 826 826 826 826 826 826 826 824
782 794 794 786 786 787 781 777 774 778 778 774 771 769 777 780 782 782 785 789 789 794 796 799 802 806 807 810 812 814 816 818 818 818 820 822 822 823 825 825 824 825 825 825 825 824 823 823 824
788 791 786 786 782 780 779 780 775 780 784 778 774 766 771 778 780 782 780 786 788 793 796 799 802 805 807 809 811 813 815 816 817 817 817 819 820 821 823 824 824 823 823 824 824 823 823 823 823
790 785 783 780 780 780 782 777 780 781 782 776 774 773 774 777 778 777 782 793 792 793 795 798 800 802 806 808 810 812 814 813 815 817 817 817 818 819 821 823 823 821 821 821 822 823 822 821 820
788 785 784 777 779 779 779 779 782 781 773 775 775 778 776 778 778 780 782 786 789 791 794 792 797 800 805 807 810 812 813 813 817 817 818 818 817 818 820 821 821 820 818 818 819 820 821 820 820
785 785 782 780 779 783 783 782 782 774 769 774 775 778 776 782 788 785 787 787 787 788 791 793 797 798 802 805 807 810 813 815 816 817 817 818 818 817 818 818 818 817 816 816 816 817 820 820 818
785 790 786 785 782 781 780 791 786 768 772 775 773 775 787 788 789 792 790 788 787 787 789 794 797 802 804 806 807 810 811 813 815 817 817 817 817 817 816 817 817 815 815 813 815 816 818 820 818
790 790 796 785 786 782 781 790 785 777 779 776 775 776 791 794 801 799 796 789 786 794 790 794 800 802 806 807 808 810 812 812 813 815 815 814 814 814 813 814 814 814 814 813 813 816 817 818 816
794 801 799 792 784 782 783 793 798 789 780 770 774 791 800 806 804 804 799 798 797 798 799 802 807 804 807 809 807 809 809 810 811 813 812 812 811 810 811 811 812 811 811 812 814 815 817 818 815
802 801 800 799 788 785 796 811 804 795 784 785 794 805 810 807 813 813 810 806 803 803 805 805 806 808 808 807 807 806 807 810 811 810 810 810 810 809 809 809 809 809 810 810 811 812 814 815 813
795 799 803 793 788 796 813 819 820 804 806 806 807 814 816 818 821 818 819 815 810 809 810 811 810 811 812 812 809 808 809 809 809 809 809 809 808 808 807 809 809 808 807 807 809 811 811 812 811
796 799 797 791 791 796 813 823 821 819 816 816 816 818 822 825 825 827 823 820 819 814 816 816 813 814 813 812 811 811 808 809 810 809 808 807 806 807 807 808 807 806 805 804 804 805 805 804 802
797 797 797 793 793 797 801 822 833 832 828 827 827 832 833 833 834 836 831 828 830 829 826 825 821 821 819 817 814 815 814 812 811 810 809 809 807 806 806 807 806 805 805 802 802 802 802 802 801
796 790 790 794 794 801 806 830 842 842 847 841 842 842 843 840 840 840 838 835 834 834 831 828 826 827 825 821 820 820 819 817 817 814 812 811 808 805 805 804 804 802 801 802 800 800 800 800 799
794 789 794 796 799 802 810 815 843 842 854 856 855 850 849 849 847 845 843 841 839 835 833 834 833 831 828 827 826 823 821 821 818 816 813 812 811 806 804 803 803 802 800 798 798 796 795 795 796
792 793 799 803 804 810 825 817 842 849 857 862 861 860 856 854 852 851 850 846 843 840 839 836 835 832 830 829 828 827 824 822 819 816 814 813 810 806 804 803 801 798 797 795 794 793 793 792 793
792 797 810 814 814 820 825 825 846 860 862 864 866 865 864 862 858 855 853 851 850 847 844 841 839 836 835 833 831 829 826 823 821 819 816 812 808 804 802 800 798 796 794 792 791 790 790 789 790
802 802 809 828 822 821 825 838 846 861 863 865 867 868 866 864 862 860 858 855 852 849 848 847 845 841 837 834 832 829 827 824 822 819 815 812 807 804 801 798 794 791 790 789 788 788 788 788 788
803 804 811 822 834 823 835 854 857 858 860 860 861 862 862 862 861 860 858 857 855 853 851 849 845 842 838 835 832 829 826 824 820 816 811 807 804 801 798 795 791 788 786 785 784 783 783 784 784
799 808 813 814 829 830 834 836 823 851 854 857 858 858 859 860 860 860 861 859 858 855 853 850 848 844 839 836 833 830 827 822 818 812 808 804 801 798 794 790 787 784 782 780 779 778 778 780 780
807 807 820 818 824 822 828 820 834 834 845 854 857 859 860 860 860 859 859 859 857 855 852 849 846 842 838 834 830 826 822 817 813 809 805 801 798 794 790 786 783 781 779 777 776 775 774 775 776
814 819 820 819 825 831 825 825 844 847 852 856 858 860 861 863 862 860 859 857 854 851 849 845 841 837 833 829 825 821 816 812 808 804 800 796 792 789 786 782 779 776 775 774 773 772 772 772 773